Weather History for Sigonella, Italy

Change the Weather History Date:

Tuesday, February 12, 2013

  Actual Average Record
Temperature  
Mean Temperature 50 °F -  
Max Temperature 59 °F 62 °F 68 °F (2007)
Min Temperature 40 °F 42 °F 32 °F (2005)
Degree Days  
Heating Degree Days 16    
Moisture  
Dew Point 44 °F    
Average Humidity 91    
Maximum Humidity 100    
Minimum Humidity 53    
Precipitation  
Precipitation 0.20 in 0.05 in - ()
Sea Level Pressure  
Sea Level Pressure 29.68 in    
Wind  
Wind Speed 5 mph ()    
Max Wind Speed 18 mph    
Max Gust Speed 31 mph    
Visibility 4.3 miles    
Events Rain , Thunderstorm    
Averages and records for this station are not official NWS values.
T = Trace of Precipitation, MM = Missing Value Source: Averaged Metar Reports

Daily Weather History Graph

Daily Weather History Graph

Search for Another Location

Airport:

Trip Planner

Search our weather history database for the weather conditions in past years. The results will help you decide how hot, cold, wet, or windy it might be!

Date:

Astronomy

Feb. 12, 2013 Rise Set
Actual Time 6:52 AM CET 5:36 PM CET
Civil Twilight 6:26 AM CET 6:03 PM CET
Nautical Twilight 5:55 AM CET 6:34 PM CET
Astronomical Twilight 5:24 AM CET 7:04 PM CET
Moon 7:44 AM CET (2/12) 8:14 PM CET (2/12)
Length of Visible Light 11h 37m
Length of Day
10h 43m
Waxing Crescent, 6% of the Moon is Illuminated
Feb 12
Waxing Crescent
Feb 17
First Quarter
Feb 25
Full
Mar 4
Last Quarter
Mar 11
New

Hourly Weather History & Observations

Time (CET) Temp. Windchill Dew Point Humidity Pressure Visibility Wind Dir Wind Speed Gust Speed Precip Events Conditions
12:55 AM 42.8 °F 41.1 °F 42.8 °F 100% 29.83 in 6.2 mi NE 3.5 mph - N/A   Mostly Cloudy
1:00 AM 43 °F - 43 °F 100% 29.83 in 6 mi NE 3.5 mph - -   Partly Cloudy
1:55 AM 42.8 °F - 42.8 °F 100% 29.80 in 6.2 mi NE 2.3 mph - N/A   Mostly Cloudy
2:55 AM 42.8 °F 41.1 °F 42.8 °F 100% 29.77 in 6.2 mi ENE 3.5 mph - N/A   Mostly Cloudy
3:55 AM 42.8 °F 41.1 °F 42.8 °F 100% 29.77 in 6.2 mi NNE 3.5 mph - N/A   Mostly Cloudy
4:00 AM 42 °F - 42 °F 100% 29.78 in 6 mi NNE 3.5 mph - -   Partly Cloudy
4:55 AM 41.0 °F 37.1 °F 41.0 °F 100% 29.74 in 5.0 mi West 5.8 mph - N/A   Mostly Cloudy
5:55 AM 41.0 °F 38.0 °F 41.0 °F 100% 29.71 in 5.0 mi West 4.6 mph - N/A   Mostly Cloudy
6:55 AM 41.0 °F - 41.0 °F 100% 29.71 in 1.9 mi WNW 2.3 mph - N/A   Mostly Cloudy
7:00 AM 41 °F - 41 °F 98% 29.73 in 2 mi WNW 2.3 mph - -   Mist
7:55 AM 41.0 °F - 41.0 °F 100% 29.71 in 1.9 mi Variable 1.2 mph - N/A   Mostly Cloudy
8:55 AM 46.4 °F - 44.6 °F 93% 29.68 in 2.5 mi ENE 2.3 mph - N/A   Scattered Clouds
9:55 AM 51.8 °F - 46.4 °F 82% 29.71 in 2.5 mi NE 2.3 mph - N/A   Mostly Cloudy
10:00 AM 51 °F - 47 °F 80% 29.72 in 2 mi NE 2.3 mph - -   Mist
11:55 AM 53.6 °F - 44.6 °F 72% 29.68 in 2.5 mi NE 2.3 mph - N/A   Mostly Cloudy
12:55 PM 55.4 °F - 42.8 °F 63% 29.65 in 2.8 mi ESE 3.5 mph - N/A   Partly Cloudy
1:00 PM 55 °F - 43 °F 53% 29.67 in 3 mi ESE 3.5 mph - -   Mist
1:55 PM 59.0 °F - 42.8 °F 55% 29.59 in 2.8 mi South 10.4 mph - N/A   Scattered Clouds
2:27 PM 53.6 °F - 41.0 °F 62% 29.62 in 2.2 mi SSW 16.1 mph 31.1 mph N/A Rain , Thunderstorm Light Thunderstorms and Rain
2:55 PM 48.2 °F - 48.2 °F 100% 29.62 in 4.3 mi WSW 8.1 mph - N/A Rain , Thunderstorm Light Thunderstorms and Rain
3:55 PM 50.0 °F - 48.2 °F 94% 29.62 in 2.8 mi NW 9.2 mph - N/A Rain Light Rain
4:00 PM 50 °F - 48 °F 89% 29.64 in 3 mi NW 9.2 mph - - Rain Light Rain
4:55 PM 48.2 °F - 48.2 °F 100% 29.59 in 1.9 mi NW 8.1 mph - N/A Rain Light Rain
5:55 PM 46.4 °F - 46.4 °F 100% 29.59 in 3.1 mi North 2.3 mph - N/A Rain Light Rain
6:55 PM 46.4 °F 45.2 °F 46.4 °F 100% 29.59 in 6.2 mi West 3.5 mph - N/A Rain Light Rain
7:00 PM 47 °F - 47 °F 99% 29.62 in 7 mi West 3.5 mph - - Rain Light Rain
7:55 PM 44.6 °F 38.1 °F 44.6 °F 100% 29.62 in 6.2 mi West 13.8 mph - N/A   Mostly Cloudy
8:55 PM 42.8 °F 35.1 °F 42.8 °F 100% 29.62 in 6.2 mi West 16.1 mph - N/A   Scattered Clouds
9:55 PM 42.8 °F 36.2 °F 42.8 °F 100% 29.65 in 6.2 mi West 12.7 mph - N/A Rain Light Rain
10:00 PM 44 °F - 44 °F 97% 29.67 in 6 mi West 12.7 mph - - Rain Light Rain
10:55 PM 44.6 °F 36.9 °F 39.2 °F 81% 29.65 in 6.2 mi West 18.4 mph - N/A   Mostly Cloudy
11:55 PM 42.8 °F 35.8 °F 41.0 °F 93% 29.68 in 6.2 mi West 13.8 mph - N/A   Scattered Clouds